Weather History for EGNV - November, 2012

Change the Weather History Date:

Thursday, November 15, 2012

  Actual Average (WUND) Record (WUND)
Temperature  
Mean Temperature 50 °F -  
Max Temperature 55 °F 46 °F - (-1)
Min Temperature 44 °F 35 °F - (-1)
Degree Days  
Heating Degree Days 16    
Moisture  
Dew Point 46 °F    
Average Humidity 86    
Maximum Humidity 93    
Minimum Humidity 72    
Precipitation  
Precipitation 0.00 in - - ()
Sea Level Pressure  
Sea Level Pressure 30.13 in    
Wind  
Wind Speed 5 mph ()    
Max Wind Speed 12 mph    
Max Gust Speed -    
Visibility 5.0 miles    
Events      
Averages and records for this station are not official NWS values.
T = Trace of Precipitation, MM = Missing Value Source: Averaged Metar Reports

Daily Weather History Graph

Daily Weather History Graph

Search for Another Location

Airport or City:

Trip Planner

Search our weather history database for the weather conditions in past years. The results will help you decide how hot, cold, wet, or windy it might be!

Date:

Astronomy

Nov. 15, 2012 Rise Set
Actual Time 7:36 AM GMT 4:03 PM GMT
Civil Twilight 6:55 AM GMT 4:44 PM GMT
Nautical Twilight 6:11 AM GMT 5:28 PM GMT
Astronomical Twilight 5:29 AM GMT 6:10 PM GMT
Moon 9:28 AM GMT (11/15) 5:26 PM GMT (11/15)
Length of Visible Light 9h 48m
Length of Day
8h 27m
Waxing Crescent, 4% of the Moon is Illuminated
Nov 15
Waxing Crescent
Nov 20
First Quarter
Nov 28
Full
Dec 6
Last Quarter
Dec 13
New

Hourly Weather History & Observations

Time (GMT) Temp. Windchill Dew Point Humidity Pressure Visibility Wind Dir Wind Speed Gust Speed Precip Events Conditions
6:20 AM 44.6 °F 43.1 °F 42.8 °F 93% 30.21 in 6.2 mi Variable 3.5 mph - N/A   Scattered Clouds
6:50 AM 48.2 °F - 44.6 °F 87% 30.21 in 6.2 mi WSW 3.5 mph - N/A   Mostly Cloudy
7:20 AM 46.4 °F - 42.8 °F 87% 30.21 in 6.2 mi SW 1.2 mph - N/A   Mostly Cloudy
7:50 AM 46.4 °F - 44.6 °F 93% 30.21 in 6.2 mi Calm Calm - N/A   Mostly Cloudy
8:20 AM 48.2 °F - 44.6 °F 87% 30.21 in 6.2 mi South 3.5 mph - N/A   Mostly Cloudy
8:50 AM 48.2 °F - 46.4 °F 93% 30.21 in 6.2 mi South 5.8 mph - N/A   Mostly Cloudy
9:20 AM 48.2 °F - 46.4 °F 93% 30.21 in 6.2 mi South 5.8 mph - N/A   Mostly Cloudy
9:50 AM 50.0 °F - 46.4 °F 87% 30.21 in 6.2 mi South 5.8 mph - N/A   Mostly Cloudy
10:20 AM 50.0 °F - 46.4 °F 87% 30.18 in 6.2 mi South 8.1 mph - N/A   Mostly Cloudy
10:50 AM 50.0 °F - 46.4 °F 87% 30.18 in 6.2 mi South 8.1 mph - N/A   Mostly Cloudy
11:20 AM 50.0 °F - 46.4 °F 87% 30.18 in 5.6 mi South 9.2 mph - N/A   Mostly Cloudy
11:50 AM 51.8 °F - 46.4 °F 82% 30.15 in 3.7 mi SSW 9.2 mph - N/A   Mostly Cloudy
12:20 PM 53.6 °F - 48.2 °F 82% 30.15 in 5.0 mi SSW 10.4 mph - N/A   Scattered Clouds
12:50 PM 53.6 °F - 48.2 °F 82% 30.15 in 5.0 mi SSW 10.4 mph - N/A   Partly Cloudy
1:20 PM 55.4 °F - 46.4 °F 72% 30.15 in 5.0 mi South 8.1 mph - N/A   Scattered Clouds
1:50 PM 53.6 °F - 46.4 °F 77% 30.12 in 4.3 mi South 10.4 mph - N/A   Scattered Clouds
2:20 PM 51.8 °F - 48.2 °F 88% 30.12 in 4.3 mi South 8.1 mph - N/A   Mostly Cloudy
2:50 PM 51.8 °F - 46.4 °F 82% 30.09 in 4.3 mi South 6.9 mph - N/A   Mostly Cloudy
3:20 PM 51.8 °F - 46.4 °F 82% 30.09 in 5.0 mi South 8.1 mph - N/A   Mostly Cloudy
3:50 PM 51.8 °F - 46.4 °F 82% 30.09 in 5.0 mi South 9.2 mph - N/A   Mostly Cloudy
4:20 PM 51.8 °F - 46.4 °F 82% 30.09 in 4.3 mi South 5.8 mph - N/A   Mostly Cloudy
4:50 PM 51.8 °F - 46.4 °F 82% 30.09 in 4.3 mi South 6.9 mph - N/A   Mostly Cloudy
5:20 PM 51.8 °F - 46.4 °F 82% 30.09 in 5.0 mi SSE 4.6 mph - N/A   Mostly Cloudy
5:50 PM 51.8 °F - 46.4 °F 82% 30.09 in 5.0 mi Variable 3.5 mph - N/A   Mostly Cloudy
6:20 PM 51.8 °F - 46.4 °F 82% 30.09 in 5.0 mi SSW 5.8 mph - N/A   Mostly Cloudy
6:50 PM 51.8 °F - 46.4 °F 82% 30.06 in 5.0 mi SSW 4.6 mph - N/A   Mostly Cloudy
7:20 PM 50.0 °F - 46.4 °F 87% 30.06 in 5.0 mi SSE 4.6 mph - N/A   Mostly Cloudy
7:50 PM 50.0 °F - 46.4 °F 87% 30.06 in 3.7 mi South 11.5 mph - N/A   Mostly Cloudy
8:20 PM 50.0 °F - 46.4 °F 87% 30.06 in 3.7 mi South 8.1 mph - N/A   Scattered Clouds
8:50 PM 48.2 °F - 44.6 °F 87% 30.06 in 3.7 mi South 8.1 mph - N/A   Partly Cloudy
9:20 PM 46.4 °F 42.4 °F 44.6 °F 93% 30.06 in 3.7 mi SSW 8.1 mph - N/A   Partly Cloudy
9:50 PM 44.6 °F 40.2 °F 42.8 °F 93% 30.04 in 3.1 mi SSW 8.1 mph - N/A   Unknown